[[{"header":{"parameterUnit":"m.s-1","parameterCategory":1,"la1":30.2991,"la2":30.254,"lo1":-89.0895,"lo2":-89.0444,"dy":0.0017,"dx":0.0017,"nx":28,"ny":28,"refTime":"2023-08-27T09:00:00:Z","depth":0,"parameterNumber":2,"parameterNumberName":"U-component_of_WINDS"},"data":[0,0,0,0,0,0,0,0,0,0,0,0,0,0,0,0,0,0,0,0,0,0,0,0,0,0,0,0,0,0,0,0,0,0,0,0,0,0,0,0,0,0,0,0,0,0,0,0,0,0,0,0,0,0,0,0,0,0,2.0577,2.0578,0,2.0683,2.0684,2.0685,2.0679,2.0677,2.0676,2.0674,2.0781,2.0785,2.079,0,0,0,0,0,0,0,0,0,0,0,0,0,2.0369,2.0373,2.0577,2.0579,2.058,2.0682,2.0684,2.0685,2.0679,2.0677,2.0675,2.0673,2.078,2.0785,2.079,0,0,0,0,0,0,0,0,0,0,0,0,0,2.0465,2.0374,2.0577,2.0589,2.0591,2.0682,2.0684,2.0686,2.0679,2.0677,2.0675,2.0673,2.0778,2.0784,2.0791,2.0876,0,0,2.081,2.0813,0,0,0,0,0,0,0,0,2.046,2.0473,2.0586,2.0588,2.0591,2.0665,2.065,2.075,2.068,2.0646,2.0674,2.0671,2.0744,2.0753,2.0778,2.0881,2.0886,2.0811,2.0815,2.0817,2.0819,0,0,0,0,0,0,0,2.0453,2.0468,2.0619,2.0588,2.0591,2.0589,2.06,2.0669,2.0707,2.0649,2.0648,2.0661,2.0745,2.0772,2.0781,2.0887,2.0811,2.0816,2.082,2.0823,2.1064,2.1067,0,0,0,0,0,0,2.0444,2.0463,2.0616,2.0622,2.0518,2.0594,2.0607,2.0644,2.0706,2.0713,2.0663,2.066,2.0762,2.0773,2.0784,2.0887,2.0817,2.0823,2.0827,2.1062,2.1065,2.1067,0,0,0,0,0,0,2.044,2.0458,2.0611,2.0543,2.0562,2.06,2.0642,2.0647,2.0674,2.0717,2.0723,2.0683,2.0761,2.0775,2.0853,2.0891,2.0826,2.0832,2.1059,2.1063,2.1066,2.1094,0,0,0,0,0,0,2.0434,2.0456,2.0489,2.0543,2.0566,2.0679,2.0644,2.0651,2.0685,2.0683,2.0738,2.0744,2.076,2.0844,2.0859,2.0898,2.0837,2.1055,2.106,2.1065,2.109,2.1098,2.1106,0,0,0,0,0,2.0426,2.0493,2.0491,2.051,2.0608,2.0681,2.0694,2.071,2.0688,2.0721,2.0749,2.0743,2.0885,2.0852,2.0869,2.0911,2.1053,2.1059,2.1065,2.1086,2.1097,2.1106,0,0,0,0,0,0,2.0442,2.05,2.0499,2.0585,2.0628,2.068,2.0722,2.0721,2.0771,2.0767,2.0785,2.0798,2.0876,2.0901,2.0864,2.0996,2.0966,2.0975,2.0976,2.0986,2.0994,2.0985,2.0842,0,0,0,0,0,2.0456,2.0511,2.0559,2.063,2.0652,2.0684,2.0716,2.0725,2.077,2.0788,2.0822,2.0865,2.0919,2.0955,2.1007,2.1094,2.1105,2.1132,2.1139,2.1146,2.1153,2.12,2.1211,2.1086,2.1086,2.1086,0,0,2.0485,2.0523,2.0557,2.0635,2.0669,2.0724,2.0699,2.0759,2.08,2.0797,2.0872,2.0898,2.0948,2.1031,2.1069,2.1054,2.119,2.1153,2.1158,2.1162,2.1207,2.1219,2.1229,2.109,2.109,2.1089,0,0,2.0565,2.06,2.0663,2.0698,2.0751,2.0771,2.0786,2.0838,2.0855,2.0931,2.093,2.0979,2.1072,2.1107,2.1137,2.1231,2.1226,2.1248,2.1288,2.1333,2.1343,2.1352,2.1383,2.1394,2.1255,2.1255,2.1255,0,2.0593,2.0678,2.0695,2.0756,2.0789,2.079,2.0853,2.0886,2.0953,2.0976,2.096,2.1076,2.111,2.12,2.1222,2.1247,2.1264,2.124,2.134,2.1349,2.1357,2.1388,2.14,2.1257,2.1257,2.1257,2.1257,0,2.0709,2.0768,2.0812,2.0876,2.0915,2.0977,2.1003,2.1041,2.1047,2.1069,2.1145,2.1186,2.1246,2.1268,2.1275,2.1359,2.1348,2.1336,2.1305,2.1371,2.14,2.1412,2.126,2.126,2.1259,2.1259,0,0,2.0801,2.0875,2.0891,2.0919,2.0977,2.1022,2.1084,2.1143,2.1173,2.122,2.127,2.135,2.1338,2.1372,2.1383,2.1423,2.1492,2.1406,2.1407,2.1419,2.1585,2.1593,2.1606,2.1491,2.1493,2.1495,2.158,0,2.0886,2.0994,2.1012,2.1107,2.116,2.1162,2.1215,2.1256,2.1279,2.1327,2.1351,2.1406,2.1388,2.1408,2.1448,2.1475,2.1526,2.147,2.1537,2.1539,2.1522,2.1621,2.163,2.1709,2.1592,2.1594,2.1595,0,2.0999,2.1048,2.1148,2.1198,2.1221,2.1268,2.1323,2.1369,2.1416,2.1429,2.1467,2.1473,2.1536,2.1504,2.159,2.1551,2.158,2.1598,2.1601,2.1607,2.157,2.1627,2.1734,2.1745,2.1614,2.1612,2.1611,0,2.1053,2.1144,2.1216,2.1241,2.1301,2.1334,2.1361,2.1405,2.1439,2.1487,2.1509,2.1564,2.1593,2.1635,2.1656,2.1631,2.174,2.171,2.1752,2.1751,2.1773,2.1771,2.1884,2.1795,2.1795,2.1794,2.1794,0,2.1144,2.1205,2.1241,2.1284,2.1352,2.1372,2.1439,2.1465,2.1504,2.1552,2.1557,2.1602,2.1627,2.1676,2.1693,2.176,2.1774,2.1786,2.1789,2.1785,2.1783,2.1802,2.1796,2.1798,2.1797,2.1796,2.1796,0,2.1216,2.1243,2.132,2.1371,2.1385,2.1433,2.1476,2.1518,2.1541,2.1602,2.1617,2.1652,2.1709,2.1734,2.1805,2.1816,2.1893,2.1894,2.1878,2.1878,2.1918,2.1913,2.2046,2.2063,2.1964,2.1965,2.1966,0,2.1271,2.1318,2.1374,2.1407,2.1434,2.1487,2.1522,2.1543,2.1579,2.1635,2.167,2.1728,2.1775,2.1866,2.1898,2.1952,2.1952,2.1995,2.196,2.1954,2.1951,2.1947,2.1951,2.2001,2.2002,2.2003,2.2003,0,2.1366,2.1377,2.1427,2.1481,2.1523,2.1567,2.1609,2.1636,2.1664,2.1704,2.1763,2.1799,2.1871,2.1928,2.1984,2.2011,2.2011,2.2014,2.2026,2.2021,2.2009,2.2014,2.1893,2.2011,2.201,2.2009,2.2009,2.2009,2.143,2.1471,2.1517,2.1572,2.1607,2.1646,2.1688,2.1716,2.1765,2.1826,2.1836,2.1898,2.1942,2.2018,2.2047,2.2095,2.2085,2.2103,2.2107,2.2111,2.2112,2.2003,2.2106,2.2106,2.2106,2.2106,2.2105,0,2.1523,2.1553,2.1604,2.1663,2.1707,2.1704,2.1752,2.1788,2.1842,2.1884,2.193,2.1997,2.2052,2.2088,2.2144,2.2176,2.2177,2.2189,2.2186,2.2192,2.2119,2.2102,2.2187,2.2187,2.2187,2.2187,2.2187,2.2187,2.1577,2.1646,2.1662,2.1748,2.1777,2.1838,2.1865,2.1902,2.1935,2.2009,2.2055,2.2078,2.2118,2.2176,2.2226,2.2235,2.2254,2.2267,2.2275,2.2206,2.2197,2.2189,2.2173,2.2271,2.2272,2.2344,2.2344,2.2345]},{"header":{"parameterUnit":"m.s-1","parameterCategory":1,"la1":30.2991,"la2":30.254,"lo1":-89.0895,"lo2":-89.0444,"dy":0.0017,"dx":0.0017,"nx":28,"ny":28,"refTime":"2023-08-27T09:00:00:Z","depth":0,"parameterNumber":3,"parameterNumberName":"V-component_of_WINDS"},"data":[0,0,0,0,0,0,0,0,0,0,0,0,0,0,0,0,0,0,0,0,0,0,0,0,0,0,0,0,0,0,0,0,0,0,0,0,0,0,0,0,0,0,0,0,0,0,0,0,0,0,0,0,0,0,0,0,0,0,3.6609,3.6609,0,3.6661,3.6662,3.6662,3.6614,3.6613,3.6611,3.6609,3.6658,3.6661,3.6664,0,0,0,0,0,0,0,0,0,0,0,0,0,3.6461,3.6464,3.6609,3.6609,3.661,3.6661,3.6662,3.6663,3.6615,3.6612,3.661,3.6608,3.6657,3.666,3.6664,0,0,0,0,0,0,0,0,0,0,0,0,0,3.6521,3.6465,3.6609,3.6593,3.6592,3.6661,3.6662,3.6663,3.6615,3.6612,3.6609,3.6607,3.6655,3.666,3.6664,3.6751,0,0,3.6679,3.6681,0,0,0,0,0,0,0,0,3.6517,3.6526,3.6594,3.6594,3.6593,3.6628,3.6628,3.6692,3.6616,3.6606,3.6609,3.6605,3.665,3.6655,3.6671,3.6753,3.6755,3.6679,3.6682,3.6684,3.6685,0,0,0,0,0,0,0,3.6513,3.6523,3.6629,3.6595,3.6594,3.6581,3.6586,3.664,3.6643,3.6607,3.6603,3.6611,3.6649,3.6666,3.6672,3.6756,3.6679,3.6683,3.6686,3.6688,3.6909,3.6912,0,0,0,0,0,0,3.6512,3.652,3.6628,3.6631,3.6547,3.6586,3.6592,3.662,3.6643,3.6644,3.6613,3.6608,3.666,3.6666,3.6673,3.6774,3.6684,3.6688,3.6691,3.6906,3.691,3.6914,0,0,0,0,0,0,3.6509,3.6522,3.6626,3.6575,3.6587,3.6591,3.6624,3.6622,3.664,3.6648,3.6647,3.6631,3.6658,3.6667,3.6732,3.6776,3.669,3.6694,3.6903,3.6908,3.6912,3.6979,0,0,0,0,0,0,3.6505,3.6521,3.6555,3.6576,3.659,3.6685,3.6626,3.6626,3.6649,3.6643,3.6664,3.6665,3.6656,3.6725,3.6736,3.678,3.6698,3.6899,3.6905,3.691,3.6973,3.6985,3.6996,0,0,0,0,0,3.6499,3.6571,3.6557,3.6571,3.6633,3.6688,3.6696,3.6686,3.6653,3.6686,3.669,3.6664,3.6769,3.6732,3.6744,3.6791,3.6896,3.6903,3.691,3.6968,3.6983,3.6996,0,0,0,0,0,0,3.6554,3.6574,3.6558,3.664,3.6663,3.668,3.6722,3.6703,3.6735,3.6728,3.6713,3.6718,3.6786,3.6795,3.6754,3.6874,3.6827,3.6837,3.6866,3.6881,3.6892,3.6888,3.6702,0,0,0,0,0,3.6576,3.6621,3.6635,3.6705,3.6717,3.6718,3.6741,3.6732,3.6754,3.6764,3.6773,3.6794,3.6832,3.6857,3.6892,3.6974,3.6977,3.7011,3.7023,3.7032,3.7041,3.7083,3.7098,3.6937,3.6936,3.6936,0,0,3.6621,3.6637,3.6666,3.6716,3.6733,3.6777,3.6726,3.6776,3.6808,3.677,3.6833,3.684,3.6863,3.6937,3.6969,3.6946,3.7086,3.7041,3.7049,3.7052,3.7092,3.7107,3.712,3.6941,3.694,3.694,0,0,3.6726,3.6743,3.6803,3.6821,3.6847,3.6847,3.6861,3.6882,3.6885,3.6948,3.692,3.6957,3.7023,3.704,3.7057,3.7167,3.7143,3.7179,3.7239,3.728,3.7293,3.7304,3.7342,3.7355,3.7187,3.7187,3.7187,0,3.6778,3.6846,3.6836,3.6887,3.6909,3.6878,3.6937,3.6955,3.6991,3.7005,3.6979,3.706,3.7073,3.7149,3.7176,3.7191,3.7206,3.7176,3.7292,3.7303,3.7313,3.7349,3.7363,3.7191,3.7191,3.719,3.719,0,3.6907,3.6955,3.6999,3.7036,3.7063,3.7118,3.7114,3.7143,3.713,3.7132,3.7195,3.721,3.7247,3.7264,3.7253,3.7338,3.7323,3.7295,3.7246,3.7333,3.7366,3.738,3.7197,3.7196,3.7194,3.7193,0,0,3.7048,3.7079,3.7095,3.7111,3.7137,3.7172,3.7225,3.7262,3.7286,3.7311,3.7354,3.741,3.7383,3.7403,3.7393,3.7429,3.7513,3.7396,3.7396,3.7416,3.7606,3.7627,3.7643,3.7498,3.75,3.7502,3.7604,0,3.7153,3.7246,3.7238,3.7326,3.7368,3.7339,3.7384,3.7404,3.7407,3.7441,3.7444,3.7483,3.7446,3.7458,3.7492,3.7496,3.7551,3.7488,3.7535,3.7537,3.7529,3.7661,3.7683,3.7778,3.7617,3.7619,3.7621,0,3.7287,3.7319,3.7411,3.743,3.7447,3.7488,3.7521,3.7556,3.7577,3.7576,3.7598,3.7581,3.7631,3.7583,3.7651,3.7609,3.7627,3.7631,3.7635,3.7638,3.7584,3.7666,3.7809,3.7823,3.7642,3.764,3.7638,0,3.7379,3.7444,3.7507,3.7522,3.7546,3.7575,3.7586,3.7604,3.7627,3.7655,3.7669,3.7702,3.772,3.7745,3.7737,3.7703,3.7807,3.7758,3.7806,3.7806,3.7828,3.7827,3.7975,3.7842,3.7842,3.7842,3.7842,0,3.7496,3.7553,3.7549,3.7588,3.765,3.7639,3.77,3.7707,3.7724,3.7762,3.7738,3.7774,3.7761,3.7796,3.779,3.7846,3.7855,3.7854,3.7851,3.7856,3.7856,3.7867,3.786,3.7846,3.7845,3.7844,3.7843,0,3.7609,3.7609,3.7675,3.7693,3.7698,3.7743,3.7757,3.7792,3.7793,3.7841,3.7852,3.7852,3.7892,3.7886,3.793,3.7925,3.7995,3.7985,3.7989,3.7986,3.8034,3.8029,3.8193,3.8214,3.8069,3.8071,3.8072,0,3.7683,3.7727,3.7749,3.7773,3.7787,3.7826,3.7849,3.784,3.7864,3.7891,3.7923,3.796,3.7989,3.8053,3.8056,3.8089,3.8078,3.8134,3.8083,3.8086,3.8078,3.8075,3.8078,3.8143,3.8145,3.8146,3.8148,0,3.7815,3.7812,3.7847,3.7882,3.7911,3.7937,3.7961,3.7982,3.7974,3.8003,3.8043,3.8066,3.8111,3.8147,3.8178,3.8187,3.8166,3.8164,3.8176,3.8181,3.818,3.818,3.8015,3.816,3.8158,3.8158,3.8157,3.8156,3.791,3.7946,3.7968,3.8007,3.8024,3.8047,3.8081,3.8086,3.812,3.8156,3.8148,3.8193,3.8211,3.825,3.8263,3.8297,3.8276,3.8295,3.8299,3.8304,3.8309,3.8176,3.8302,3.8302,3.8301,3.8301,3.8301,0,3.8039,3.8051,3.8087,3.8122,3.8153,3.8131,3.8156,3.8183,3.8223,3.8243,3.8272,3.8318,3.8353,3.8359,3.8392,3.8418,3.8409,3.8427,3.8424,3.8426,3.8326,3.8311,3.8434,3.8434,3.8434,3.8434,3.8434,3.8434,3.811,3.817,3.817,3.8238,3.8249,3.8294,3.831,3.833,3.8345,3.8398,3.8428,3.8432,3.8445,3.8479,3.851,3.851,3.8523,3.8545,3.8541,3.8447,3.8434,3.8421,3.8407,3.8548,3.8548,3.8639,3.864,3.864]}]]